Location: Casalecchio di Reno
(44.4760°N, 11.2757°E)
Time: 19:14:31
(UTC+02:00)

DX 1 - Pass Details

Date: 26 June 2024
Orbit: 607 x 619 km, 98.3° (Epoch: 15 July)

Event Time Altitude Azimuth Distance (km) Brightness Sun altitude
Rises 02:03:35 0° 5° (N) 2,877 ? -21.4°
Reaches altitude 10° 02:05:53 10° 357° (N) 1,969 ? -21.3°
Maximum altitude 02:09:47 36° 291° (WNW) 964 ? -21.1°
Enters shadow 02:10:49 32° 260° (W) 1,061 ? -21.1°
